Flight Information

DEPARTURE
RAMONA, CA
Elevation:
1394
Runways:
H1 - 340x66 - ASPH-CONC
9/27 - 5001x150 - ASPH-G
ATIS:
132.025
Ground:
121.65
Tower:
119.875
DESTINATION
,
Elevation:
TPA:
1000 (est.)


6737.8 NM75° True-13° Var61° HDG

Flight Plan:
(click to file on line)

1. Type
2. Aircraft Identification
3. Aircraft Type / Special Equipment
4. True Airspeed
kts
5. Departure Airport
(ICAO code)
6. Arriving Airport
(ICAO code)
7. Cruising Altitude
ft
8. Alternate Airport
(ICAO code)
9. Route of Flight
10. Remarks


00:00:00 Departure ATIS: Destination ATIS:

Clearance Limit:
Route:
Altitude: Expect in minutes
Frequency:
Transponder: (7500 Hijack / 7600 Lost Comms / 7700 Emergency)


KRNM 281253Z AUTO 00000KT 9SM CLR 11/10 A2991 RMK AO2 SLP119 T01110100
Time: 2020-09-28T12:53:00Z
1601299284
Winds: calm
Visibility: 9.0 sm
Clouds (AGL): CLR
Temperature: 11.1 C
Dew Point: 10.0 C
Pressure: 29.911417 in Hgbr


Notes:

Data extracted from FAA Digital Chart Supplement. Effective: 0901Z Thursday, Sep 10, 2020 to 0901Z Thursday, Nov 5, 2020
Current ATIS data is provided courtisy of PilotEdge.